www.pogodaiklimat.ru

Архив погоды в Норильске (Красноярский край, Россия)

Время
(UTC), дата
06 19.09
09 19.09
12 19.09
15 19.09
18 19.09
21 19.09
00 20.09
03 20.09
06 20.09
09 20.09
12 20.09
15 20.09
18 20.09
21 20.09
00 21.09
03 21.09
06 21.09
09 21.09
12 21.09
15 21.09
18 21.09
21 21.09
00 22.09
03 22.09
06 22.09
09 22.09
12 22.09
15 22.09
18 22.09
21 22.09
00 23.09
03 23.09
06 23.09
09 23.09
12 23.09
15 23.09
18 23.09
21 23.09
00 24.09
03 24.09
06 24.09
09 24.09
12 24.09
15 24.09
18 24.09
21 24.09
00 25.09
03 25.09
06 25.09
09 25.09
12 25.09
15 25.09
18 25.09
21 25.09
00 26.09
03 26.09
Ветер
(напр.,м/с)
Видим. Явления Облачность Т
(С)
Тd
(С)
f
(%)
Тe
(С)
Тes
(С)
Комфортность P
(гПа)
Po
(гПа)
Тmin
(С)
Tmax
(С)
R
(мм)
R24
(мм)
S
(см)
З 3 2000 м дымка {дождь, туман} ?/? +2.1 +1.8 98 -2 -2 по сезону 1003.8 995.7
З 7-10
{10}
4000 м слаб. дождь 10/8 600 м
[Sc Ac As]
+0.9 -0.2 92 -6 -6 холодно 1003.8 995.7
З 5
{10}
50 км {дождь} 8/6 600 м
[Sc Ac lent]
+0.7 -1.0 88 -5 -5 прохладно 1004.9 996.8 +3.3 0.5
С 6-12
{12}
20 км 10/10 600 м
[Sc]
+0.4 -2.9 78 -6 -6 прохладно 1006.9 998.8
СЗ 5-10
{13}
20 км 10/10 600 м
[Sc]
-0.4 -2.8 84 -7 -7 прохладно 1009.8 1001.7
СЗ 6-12
{13}
20 км 9/6 600 м
[Sc Ac trans]
-0.7 -3.8 80 -7 -7 прохладно 1012.3 1004.1
С 4-10
{12}
20 км 9/6 600 м
[Sc Ac trans]
-0.9 -2.7 88 -7 -7 прохладно 1015.3 1007.1 -0.9
СЗ 5
{12}
50 км 3/3 600 м
[Sc]
+1.1 -2.7 76 -5 -4 прохладно 1017.9 1009.8
СЗ 4
{13}
50 км 3/0 2000 м
[Ac lent]
+2.8 -4.9 57 -1 -0 по сезону 1020.7 1012.6
С 4
{11}
50 км ясно +2.1 -6.8 52 -2 -1 по сезону 1022.7 1014.5
С 4 50 км 4/0 2000 м
[Ac lent Ci fib]
+0.4 -7.1 57 -4 -4 прохладно 1023.8 1015.5 +2.8
В 2 20 км ясно -1.5 -7.5 64 -5 -5 прохладно 1023.8 1015.5
ЮВ 3 20 км ясно -2.4 -7.2 70 -7 -7 прохладно 1022.3 1014.0
В 4 20 км ясно -3.5 -6.0 83 -10 -10 холодно 1020.1 1011.8
В 7 50 км 8/0 2000 м
[Ac lent Ci fib]
-2.6 -6.7 73 -10 -10 холодно 1017.9 1009.6 -3.4
В 6-11
{12}
50 км 8/6 600 м
[Sc Ac trans]
-1.5 -5.9 72 -8 -8 холодно 1014.9 1006.7
В 9-13
{15}
50 км 9/8 600 м
[Sc Ac trans]
+1.1 -6.4 57 -6 -6 холодно 1009.7 1001.7
В 14-14
{20}
2000 м крупа {ливн. снег, метель} 10/10 600 м
[Cb cap]
+0.2 -2.7 81 -9 -9 очень
холодно
1004.8 996.7
В 11-15
{19}
2000 м крупа {ливн. снег, метель} 10/10 600 м
[Cb cap]
-0.3 -0.6 98 -9 -9 очень
холодно
1001.7 993.7 +1.1 7
В 10-16
{16}
4000 м слаб. ливневой дождь со снегом {метель} 10/10 600 м
[Cb cap]
0.0 -0.5 96 -8 -8 холодно 998.7 990.7
В 9-14
{16}
4000 м слаб. ливневой дождь со снегом {метель} 10/10 600 м
[Cb cap]
+0.1 -0.2 98 -8 -8 холодно 996.6 988.6
В 10-13
{14}
4000 м слаб. ливневой дождь со снегом {метель} 10/10 600 м
[Cb cap]
+0.3 0.0 98 -8 -8 холодно 994.7 988.7
В 8-11
{13}
10 км слаб. дождь {ливн. дождь, метель} 10/10 600 м
[Sc]
+0.9 +0.4 96 -7 -7 прохладно 993.9 985.9 -0.2 10 0
В 6
{13}
10 км слаб. дождь 10/10 600 м
[Sc]
+1.0 +0.5 96 -6 -6 прохладно 993.6 985.6
ЮВ 4
{10}
4000 м слаб. дождь со снегом 10/10 600 м
[Sc]
+1.1 +0.8 98 -4 -4 прохладно 994.2 986.2
В 1 20 км {снег, дождь} 10/8 600 м
[Sc Ac und]
+1.9 +1.6 98 -0 0 по сезону 995.4 987.4
штиль 0 2000 м слаб. морось {снег, дождь} 10/10 300 м
[St]
+1.3 +1.3 100 -0 -0 по сезону 996.6 988.6 +2.2 15
штиль 0 2000 м слаб. дождь {снег} 10/10 300 м
[St]
+1.2 +0.9 98 -0 -0 по сезону 997.2 988.9
З 2 2000 м слаб. дождь 10/10 300 м
[St]
+1.3 +1.0 98 -2 -2 по сезону 997.3 989.3
З 3 2000 м слаб. морось {дождь} 10/10 300 м
[St]
+1.2 +1.2 100 -4 -4 по сезону 997.7 989.7
З 5 2000 м в посл. час туман {морось} 10/10 300 м
[St]
+1.1 +0.9 99 -5 -5 по сезону 998.7 990.7 +1.1 2
З 4 20 км 10/10 300 м
[St]
+0.6 +0.3 98 -5 -5 прохладно 999.7 991.7
З 5 20 км 10/10 600 м
[Sc]
+0.6 -0.5 92 -5 -5 прохладно 1001.4 993.4
З 4 20 км в посл. час ливневой снег 10/10 600 м
[Cb cap]
+0.6 -0.8 90 -5 -5 прохладно 1003.7 995.6
З 4 20 км {снег} 8/6 600 м
[Sc Ac trans]
+0.3 -1.4 88 -5 -5 прохладно 1005.7 997.6 +1.3 0.0
З 3 20 км 8/6 600 м
[Sc Ac trans]
+0.1 -2.8 81 -4 -4 по сезону 1006.9 998.8
З 4 20 км 8/4 600 м
[Sc Ac trans]
-1.0 -2.9 87 -7 -7 прохладно 1007.9 999.7
З 2 20 км 8/0 2000 м
[Ac trans Ci fib]
-1.1 -3.4 84 -5 -5 по сезону 1009.5 1001.3
ЮЗ 4 20 км 8/6 600 м
[Sc Ac trans]
-1.2 -4.1 81 -7 -7 прохладно 1010.4 1002.2 -1.4 1
З 4 50 км 6/3 600 м
[Sc Ac trans]
-1.2 -4.5 78 -7 -6 прохладно 1011.3 1003.1
З 4 50 км 6/4 600 м
[Sc Ac trans]
-0.5 -3.9 78 -6 -5 прохладно 1012.1 1004.0
З 6
{12}
50 км 6/4 600 м
[Sc Ac trans]
-0.3 -3.6 78 -7 -7 холодно 1013.2 1005.0
СЗ 4
{10}
50 км слаб. снег 10/10 300 м
[St]
-0.6 -3.4 81 -6 -6 прохладно 1013.7 1005.5 -0.3 0.0
З 4 20 км {снег} 10/8 600 м
[Sc Ac und]
-1.3 -3.0 88 -7 -7 прохладно 1013.0 1004.8
З 3 20 км 10/6 600 м
[Sc Ac trans]
-1.7 -3.1 90 -7 -7 прохладно 1012.9 1004.7
З 3 20 км 10/6 600 м
[Sc Ac trans]
-1.2 -3.2 86 -6 -6 по сезону 1012.5 1004.3
З 3 20 км 10/6 600 м
[Sc Ac trans]
-1.7 -3.1 90 -7 -7 прохладно 1012.9 1004.7 -1.9 0.0 1
З 4 50 км 9/0 2000 м
[Ac und]
-1.1 -3.0 87 -7 -7 прохладно 1013.5 1005.3
ЮЗ 2 50 км 9/0 2000 м
[Ac trans Cs]
+0.8 -3.4 73 -2 -1 по сезону 1014.0 1005.9
СЗ 5 50 км 9/0 2000 м
[Ac und]
+0.5 -5.2 66 -5 -5 прохладно 1015.0 1006.9
СЗ 4 50 км 8/4 600 м
[Sc Ac trans]
-0.9 -5.5 71 -6 -6 прохладно 1015.8 1007.6 +0.8
З 2 20 км 4/0
[Ac trans]
-2.9 -6.0 79 -7 -7 прохладно 1016.3 1008.0
ЮЗ 2 20 км 4/0
[Ac trans]
-3.2 -6.3 79 -7 -7 прохладно 1016.8 1008.5
штиль 0 20 км 4/0
[Ac trans]
-2.6 -7.8 67 -3 -3 по сезону 1017.5 1009.2
СВ 2 50 км 8/4 600 м
[Sc Ac lent]
-0.4 -7.9 57 -4 -4 по сезону 1018.2 1010.0 -3.9 1
З 3 50 км 8/0 2000 м
[Ac lent Ci fib]
-1.1 -7.7 61 -6 -5 прохладно 1013.0 1010.8 -1.1
Местоположение метеостанции Норильск (Красноярский край, Россия): широта 69.33 долгота 88.30 высота над уровнем моря 65 м.
В архиве по умолчанию представлена погода в Норильске за последнюю неделю. Архивные данные за месяц целиком и за предыдущие месяцы, начиная с января 2011 года, Вы можете получить, выбрав интересующий диапазон дат из раскрывающегося списка и нажав кнопку "Найти!".
*Определитесь, кто Вы:
Внимание! Время в таблицах - всемирное. Для получения местного времени необходимо прибавить поправку, которая равна 7 ч.
Смотрите также архив погоды в соседних городах и на ближайших метеорологических станциях:
Партнеры нашего сайта:      
Пояснения к столбцам:
  • Ветер - указаны скорость ветра в м/с - средняя за 10 мин, порывы в срок и между сроками (в фигурных скобках) и направление, откуда дует ветер: С - северный,
  • СВ - северо-восточный, В - восточный, ЮВ - юго-восточный, Ю - южный, ЮЗ - юго-западный, З - западный, СЗ - северо-западный.
  • Видимость - горизонтальная дальность видимости в метрах или километрах. При видимости от 1 до 10 км при отсутствии осадков обычно наблюдается дымка, при ухудшении видимости до 1 км и менее - туман. В сухую погоду видимость может ухудшаться дымом, пылью или мглою.
  • Явления - указаны атмосферные явления, наблюдавшиеся в срок или в последний час перед сроком; фигурными скобками обозначены явления, наблюдавшиеся между сроками (за 1-3 часа до срока); квадратными скобками обозначены град или гололедные отложения с указанием их диаметра в мм.
  • Облачность - указаны через наклонную черту общая и нижняя облачность в баллах и высота нижней границы облаков в метрах; квадратными скобками обозначены формы облаков: Ci - перистые, Cs - перисто-слоистые, Cc - перисто-кучевые, Ac - высококучевые, As - высокослоистые, Sc - слоисто-кучевые, Ns - слоисто-дождевые, Cu - кучевые, Cb - кучево-дождевые. Подробнее классификацию облаков см. в Атласе облаков (PDF).
  • T - Температура воздуха - температура, измеренная на высоте 2 м над землей.
  • Td - Температура точки росы - температура, при понижении до которой содержащийся в воздухе водяной пар достигнет насыщения.
  • f - Относительная влажность воздуха - влажноcть воздуха, измеренная на высоте 2 м над землей.
  • Te - Эффективная температура - температура, которую ощущает одетый по сезону человек в тени. Характеристика душности погоды. При расчете учитывается влияние влажности воздуха и скорости ветра на теплоощущения человека.
  • Tes - Эффективная температура на солнце - температура, которую ощущает человек, с поправкой на солнечный нагрев. Характеристика знойности погоды. Зависит от высоты солнца над горизонтом, облачности и скорости ветра. Ночью, в пасмурную погоду, а также при ветре 12 м/с и более поправка равна нулю.
  • P - Атмосферное давление - приведенное к уровню моря атмосферное давление.
  • Po - Атмосферное давление - измеренное на уровне метеостанции атмосферное давление.
  • Tmin - Минимальная температура - минимум температуры воздуха на высоте 2 м над землей.
  • Tmax - Максимальная температура - максимум температуры воздуха на высоте 2 м над землей.
  • R - Количество осадков - Количество выпавших осадков за период времени, мм. При наведении курсора мыши на число - период времени, за который выпало указанное количество осадков.
  • R24 - Количество осадков - Количество выпавших осадков за 24 часа, мм.
  • S - Снежный покров - Высота снежного покрова, см. При наведении курсора мыши на число - состояние снежного покрова и степень покрытия местности в баллах.